This demonstration page uses our WeatherBlox Daily Observations layout. Learn more.

Left ArrowRight Arrow

Hourly Observations for May 31, 2019

Temp ( °F °C ) Dew Point ( °F °C ) Humidity (%) Winds ( mph kmh ) Pressure ( in mb ) Visibility ( mi km ) Precip ( " mm )
12:53 am 00:53 Clear 59 15 44 6.7 58 58 N 12 19 29.97 1015 9 14 0.00 0.00
1:12 am 01:12 Clear 58 14.4 44 6.7 60 60 NW 10 17 29.98 1015 10 16 0.00 0.00
1:53 am 01:53 Clear 58 14.4 44 6.7 60 60 NNW 12 19 30.00 1016 10 16 0.00 0.00
2:53 am 02:53 Clear 56 13.3 44 6.7 65 65 NNE 12 19 30.01 1016 10 16 0.00 0.00
3:53 am 03:53 Clear 54 12.2 44 6.7 69 69 NE 8 13 30.03 1017 10 16 0.00 0.00
4:53 am 04:53 Clear 52 11.1 44 6.7 75 75 ENE 6 9 30.04 1017 10 16 0.00 0.00
5:53 am 05:53 Mostly Cloudy 51 10.6 44 6.7 77 77 ESE 3 6 30.06 1018 10 16 0.00 0.00
6:53 am 06:53 Mostly Sunny 50 10 46 7.8 86 86 Calm 30.08 1019 9 14 0.00 0.00
7:53 am 07:53 Sunny 55 12.8 47 8.3 74 74 ENE 3 6 30.09 1019 10 16 0.00 0.00
8:53 am 08:53 Sunny 56 13.3 47 8.3 72 72 ESE 6 9 30.11 1020 10 16 0.00 0.00
9:53 am 09:53 Sunny 58 14.4 47 8.3 67 67 ENE 9 15 30.11 1020 10 16 0.00 0.00
10:53 am 10:53 Sunny 59 15 47 8.3 64 64 ENE 9 15 30.12 1020 10 16 0.00 0.00
11:53 am 11:53 Sunny 62 16.7 48 8.9 60 60 E 8 13 30.11 1020 10 16 0.00 0.00
12:53 pm 12:53 Sunny 66 18.9 47 8.3 50 50 E 7 11 30.10 1019 10 16 0.00 0.00
1:53 pm 13:53 Sunny 69 20.6 47 8.3 45 45 ENE 7 11 30.07 1018 10 16 0.00 0.00
2:53 pm 14:53 Sunny 70 21.1 44 6.7 39 39 ENE 8 13 30.06 1018 10 16 0.00 0.00
3:53 pm 15:53 Sunny 71 21.7 43 6.1 36 36 VRB 7 11 30.04 1017 10 16 0.00 0.00
4:53 pm 16:53 Sunny 71 21.7 44 6.7 38 38 E 5 7 30.02 1017 10 16 0.00 0.00
5:53 pm 17:53 Sunny 70 21.1 43 6.1 38 38 E 8 13 30.01 1016 10 16 0.00 0.00
6:53 pm 18:53 Sunny 69 20.6 45 7.2 42 42 E 10 17 30.00 1016 10 16 0.00 0.00
7:53 pm 19:53 Sunny 66 18.9 48 8.9 52 52 ENE 9 15 29.99 1016 10 16 0.00 0.00
8:53 pm 20:53 Sunny 61 16.1 49 9.4 65 65 ENE 7 11 30.00 1016 10 16 0.00 0.00
9:53 pm 21:53 Clear 56 13.3 49 9.4 77 77 ENE 7 11 30.01 1016 10 16 0.00 0.00
10:53 pm 22:53 Clear 54 12.2 49 9.4 83 83 ESE 5 7 30.02 1017 10 16 0.00 0.00
11:53 pm 23:53 Clear 55 12.8 49 9.4 80 80 Calm 30.01 1016 10 16 0.00 0.00

Powered by AerisWeather